Wind_Speed
47 53 61 60 58 40 34 38 36 29 25 32 39 42 48 44 40 32 26 21 14 14 18 18 18 20 20 23 28 30 30 33 36 32 28 28 29 27 27 25 25 27 25 21
44 62 68 61 49 53 48 35 37 33 37 37 42 49 49 45 40 37 29 17 12 14 15 18 21 25 28 30 30 27 29 32 31 28 26 27 26 25 25 24 25 25 21 17
61 69 59 57 56 46 47 49 39 36 28 34 35 45 35 44 30 30 22 17 11 9 9 15 20 22 24 27 25 17 20 23 24 23 24 25 23 25 23 23 24 21 17 16
52 55 34 52 49 38 44 41 38 33 24 26 21 29 27 41 44 29 23 16 12 13 15 20 22 20 12 14 11 9 15 17 18 19 23 21 23 22 21 23 20 18 16 13
46 34 43 34 47 46 47 23 32 30 18 22 31 24 33 28 39 23 24 19 13 15 18 16 12 12 11 11 7 9 10 12 15 21 19 21 19 19 21 20 18 17 14 8
33 19 27 52 30 31 25 19 20 18 23 24 32 25 44 30 32 22 27 20 13 12 13 11 10 12 13 8 5 6 9 12 18 17 19 17 16 18 19 17 18 14 9 3
25 27 23 25 33 27 26 26 9 9 11 13 18 19 39 22 19 12 24 23 15 11 10 11 11 10 10 8 7 8 10 15 15 16 14 13 14 15 14 17 11 7 4 3
25 16 32 25 34 35 39 39 19 11 9 10 24 14 23 30 13 19 17 19 20 12 12 14 9 6 9 7 7 8 13 15 13 12 11 12 13 10 12 10 3 6 4 2
19 24 16 27 29 36 39 39 32 22 3 4 8 9 18 12 12 17 16 18 15 11 12 14 7 10 8 6 6 12 11 10 10 9 9 10 10 6 7 8 6 7 1 4
14 10 27 31 27 31 32 38 24 20 13 8 6 6 16 8 19 16 15 16 18 14 15 13 10 11 8 7 9 8 8 9 8 8 7 7 6 5 9 7 5 1 3 6
28 7 17 33 34 39 28 41 18 23 12 6 3 7 12 11 14 13 11 10 9 10 14 9 10 9 9 6 7 7 7 8 8 7 5 5 2 5 8 3 2 3 7 8
24 17 8 38 23 30 36 34 36 23 11 18 5 7 7 18 16 15 9 7 8 13 11 9 8 8 6 5 7 8 7 7 7 5 3 1 1 3 4 3 5 5 6 9
9 16 17 11 17 27 39 34 37 24 15 21 13 3 14 13 16 13 8 8 12 14 11 8 6 8 6 6 8 8 7 5 5 2 1 2 2 2 2 5 5 5 5 9
4 14 19 15 18 20 33 36 31 33 24 16 30 17 18 13 12 9 7 12 16 13 10 5 8 7 7 7 9 7 5 4 4 3 4 4 3 5 6 8 7 5 6 9
5 5 15 28 15 12 11 33 36 37 34 26 18 32 31 13 7 4 9 21 18 14 9 5 9 6 6 8 9 7 4 5 5 5 6 6 7 6 6 8 9 10 6 5
9 2 8 23 20 10 10 13 30 35 33 31 26 23 22 18 12 5 14 19 18 13 8 9 8 7 7 8 9 6 5 7 7 7 9 8 9 9 6 6 8 8 7 6
7 9 2 21 11 9 12 19 17 24 34 32 32 32 17 27 18 6 13 12 17 15 9 6 4 3 7 9 9 7 5 8 8 9 9 9 9 8 8 9 10 7 7 7
3 5 1 5 7 9 5 13 18 20 23 35 38 29 29 23 15 11 8 15 16 17 13 8 8 6 9 12 12 9 7 9 10 10 10 9 9 8 7 7 10 10 8 13
13 5 2 3 10 3 7 5 19 20 20 20 31 39 40 28 26 21 15 17 17 18 13 7 4 4 7 12 12 10 8 9 11 11 11 10 9 8 8 6 5 7 8 13
16 13 5 2 4 11 8 4 12 27 17 26 25 25 32 36 32 25 15 19 22 19 18 13 10 6 9 13 12 11 10 9 11 11 12 11 10 9 9 7 6 8 11 11
17 16 14 9 3 3 6 3 12 16 11 18 28 27 27 32 29 25 22 26 24 19 18 19 12 5 6 13 13 12 11 10 11 13 13 13 11 9 9 9 8 9 9 9
9 12 8 7 5 4 5 4 10 7 15 18 28 27 26 28 29 28 24 30 30 25 21 23 16 11 8 13 15 13 12 13 11 11 13 13 12 10 9 10 9 10 10 10
5 6 7 10 6 5 4 4 7 9 14 16 25 31 25 26 29 32 24 30 28 28 23 23 22 16 11 12 16 15 14 12 13 12 12 13 14 14 12 11 11 10 11 12
11 8 4 5 7 9 4 5 3 8 10 11 20 29 31 27 26 29 30 29 27 32 23 24 27 21 16 12 14 18 16 13 14 14 13 13 13 13 14 14 14 14 12 12
7 7 4 4 7 8 7 10 8 8 11 12 17 21 27 32 27 26 27 26 29 34 25 25 29 22 22 16 16 15 15 18 15 15 16 15 15 14 13 13 14 15 16 15
6 3 2 4 4 5 12 11 11 10 10 14 17 21 21 23 28 27 30 28 28 28 28 27 31 27 27 21 19 17 13 14 19 17 16 17 15 15 15 15 15 15 17 18
Wind_Direction
220 219 222 221 227 231 240 245 245 245 253 266 271 280 286 285 295 300 288 266 250 267 257 253 249 261 265 271 275 269 263 266 271 272 278 287 296 300 302 299 307 312 308 299
213 223 231 229 233 237 237 239 241 247 254 265 273 279 281 283 292 289 287 246 262 260 254 253 257 270 270 272 280 278 263 263 270 272 278 289 297 301 296 298 307 308 302 296
216 236 230 231 231 231 235 236 238 244 255 263 272 275 283 286 284 284 258 248 251 240 265 268 269 273 275 274 278 262 260 263 269 273 283 293 298 296 294 300 306 305 301 296
221 231 230 230 229 224 237 240 243 248 242 252 268 280 272 282 288 278 235 236 235 255 272 274 280 276 270 261 244 244 252 261 269 280 290 295 297 293 299 303 306 314 303 297
218 221 211 221 235 230 239 235 242 233 239 266 260 270 281 280 284 267 223 226 253 255 275 273 265 253 274 261 236 247 258 271 278 289 291 295 291 297 301 301 308 309 303 296
223 235 223 231 223 227 222 226 225 236 246 244 249 254 273 263 280 269 219 219 241 246 262 241 267 268 286 251 263 269 270 278 287 286 296 291 296 303 301 307 308 300 302 270
219 214 221 218 213 214 199 199 190 210 213 246 245 226 241 260 256 291 207 210 229 243 249 244 244 269 258 261 254 263 276 281 284 295 291 293 300 301 312 317 307 310 324 249
205 201 204 200 204 197 197 192 198 211 224 229 231 228 253 275 276 238 190 205 221 247 245 237 235 260 237 238 249 269 279 279 291 292 290 293 295 307 321 349 340 334 317 203
218 223 211 209 202 194 203 208 218 228 219 228 219 241 268 256 206 180 184 197 210 235 239 216 243 228 231 248 261 284 273 284 291 280 286 289 295 314 331 318 322 328 160 143
234 227 215 198 195 203 209 203 194 207 218 227 234 233 234 246 205 181 190 212 224 233 218 204 222 221 234 240 285 265 275 285 275 272 283 292 298 316 325 320 327 87 140 144
224 270 187 183 195 190 190 193 198 203 216 209 234 233 243 219 180 180 149 172 176 192 184 205 210 221 222 260 265 259 279 271 262 271 288 289 319 327 331 350 44 98 158 148
206 235 200 201 202 196 201 199 197 199 190 214 219 247 231 185 173 171 163 160 179 179 194 204 217 230 214 278 247 253 278 263 254 269 284 291 30 347 355 40 114 120 147 147
185 220 215 163 194 203 207 204 204 211 212 203 200 220 207 187 187 180 168 179 186 192 202 204 239 230 215 251 237 247 272 249 234 242 136 90 81 41 72 79 120 113 145 156
233 213 215 205 188 197 209 209 206 208 213 202 213 222 190 166 180 189 210 193 189 192 187 202 230 219 219 233 227 237 254 203 186 157 120 98 92 114 119 83 80 110 145 155
337 220 220 224 203 190 161 210 210 212 216 221 219 221 216 185 229 215 205 181 183 183 180 222 220 216 225 223 223 224 210 164 150 142 117 94 96 116 139 112 88 94 106 119
348 247 257 220 231 247 236 197 213 218 217 222 225 247 232 214 210 209 170 174 190 184 188 229 218 220 222 209 213 210 178 151 143 146 127 105 102 109 124 149 121 109 96 82
353 345 290 210 223 256 256 219 208 212 219 217 223 222 208 211 221 207 193 194 200 188 190 223 239 210 216 199 203 199 167 148 147 151 137 126 109 96 94 124 141 110 88 87
263 334 318 240 199 225 205 208 218 210 222 226 231 236 231 211 205 229 234 201 193 188 195 207 231 225 211 195 196 195 166 151 154 161 144 133 121 107 100 114 122 122 107 83
222 228 261 202 213 244 193 176 190 201 214 216 225 235 238 240 247 219 212 211 189 190 189 186 200 214 217 200 198 190 175 155 160 167 153 137 122 113 113 122 128 126 113 115
206 213 222 220 218 211 174 149 190 194 201 217 219 221 227 227 235 207 218 208 192 194 186 189 209 218 211 198 198 191 181 159 159 166 167 155 142 127 111 115 121 119 126 132
182 206 218 222 246 271 237 257 191 181 198 198 215 220 217 222 218 206 198 193 192 194 200 194 206 201 233 204 200 195 184 167 163 171 172 169 161 149 135 124 124 120 121 126
169 179 193 197 223 246 319 156 176 200 230 206 206 217 215 214 210 208 201 203 199 202 207 200 198 195 209 207 202 201 189 185 168 169 174 167 166 160 154 140 131 129 129 128
179 181 178 183 197 219 34 58 163 223 225 224 210 216 218 213 206 211 205 210 206 199 207 210 203 203 202 211 204 201 208 190 181 171 177 173 165 163 159 154 146 142 138 135
212 219 235 277 240 224 217 206 230 256 239 229 214 214 216 213 212 216 213 212 210 200 204 212 207 207 205 204 197 196 211 200 194 183 178 180 177 172 168 165 160 157 153 147
186 188 228 264 252 266 246 218 224 252 257 235 221 216 219 219 216 216 209 206 210 206 211 219 210 209 212 202 205 202 203 207 202 199 189 185 186 181 180 179 174 168 165 162
76 79 149 220 229 239 203 209 226 246 254 238 222 219 219 215 212 212 201 201 206 206 218 217 213 209 213 203 208 217 211 211 211 211 205 195 191 188 184 185 190 188 180 178
Height
3066 3072 3059 3065 3070 3082 3088 3088 3091 3096 3103 3104 3101 3097 3099 3103 3100 3096 3093 3091 3092 3093 3094 3094 3095 3096 3096 3095 3094 3093 3094 3094 3094 3094 3094 3093 3090 3086 3083 3080 3077 3073 3069 3066
3058 3048 3045 3067 3073 3075 3078 3082 3083 3090 3096 3097 3094 3089 3092 3095 3092 3091 3089 3088 3088 3089 3089 3090 3090 3091 3090 3089 3088 3087 3087 3089 3089 3089 3088 3087 3083 3081 3078 3076 3073 3069 3065 3062
3031 3020 3056 3058 3062 3066 3068 3071 3080 3084 3090 3090 3087 3080 3086 3086 3084 3084 3083 3083 3084 3084 3085 3085 3086 3085 3084 3083 3081 3081 3083 3084 3084 3085 3084 3081 3079 3076 3074 3072 3069 3065 3061 3058
3030 3037 3043 3047 3050 3060 3061 3072 3079 3084 3086 3084 3087 3073 3080 3076 3075 3076 3077 3078 3080 3080 3080 3081 3081 3080 3078 3078 3077 3078 3079 3080 3081 3080 3078 3076 3074 3072 3071 3068 3064 3061 3058 3055
3011 3022 3033 3038 3038 3050 3052 3070 3073 3077 3080 3081 3082 3079 3069 3071 3065 3067 3071 3074 3075 3076 3076 3076 3076 3076 3075 3074 3075 3075 3076 3077 3077 3075 3074 3073 3070 3069 3067 3063 3061 3058 3055 3053
3018 3020 3027 3027 3039 3046 3057 3067 3069 3070 3075 3070 3072 3077 3055 3061 3058 3060 3064 3069 3070 3072 3071 3072 3073 3073 3072 3072 3072 3073 3073 3073 3073 3071 3070 3069 3068 3066 3063 3060 3057 3055 3052 3051
3010 3013 3015 3024 3035 3043 3050 3060 3063 3066 3065 3053 3063 3066 3045 3051 3053 3053 3056 3063 3065 3067 3068 3069 3069 3070 3070 3070 3070 3070 3071 3070 3069 3068 3067 3066 3065 3063 3061 3057 3054 3053 3051 3050
3002 3007 3007 3011 3018 3028 3035 3041 3046 3051 3051 3050 3053 3049 3038 3044 3046 3049 3053 3057 3060 3063 3064 3066 3066 3067 3068 3068 3068 3068 3067 3067 3066 3065 3065 3064 3063 3062 3059 3056 3054 3052 3050 3050
2996 2995 2998 3007 3014 3024 3029 3034 3044 3046 3047 3046 3040 3040 3037 3038 3039 3044 3048 3052 3056 3058 3060 3062 3064 3065 3065 3066 3066 3066 3065 3064 3064 3064 3063 3062 3061 3060 3057 3055 3053 3052 3051 3050
2992 2993 2995 3003 3012 3016 3016 3028 3037 3039 3037 3040 3034 3036 3034 3032 3036 3041 3045 3049 3052 3054 3056 3059 3061 3062 3063 3063 3064 3063 3062 3062 3062 3062 3062 3060 3060 3058 3056 3055 3053 3052 3052 3052
2989 2992 2990 2997 2993 3000 3013 3018 3024 3030 3031 3029 3030 3028 3029 3030 3033 3040 3043 3045 3048 3051 3054 3058 3059 3060 3060 3061 3061 3061 3061 3061 3061 3060 3060 3059 3058 3057 3056 3054 3053 3052 3052 3053
2987 2989 2987 2985 2994 3000 3005 3008 3013 3016 3024 3027 3029 3027 3026 3030 3034 3038 3040 3042 3046 3050 3054 3056 3057 3058 3058 3060 3059 3060 3060 3059 3059 3059 3059 3058 3058 3057 3056 3055 3054 3054 3055 3054
2984 2986 2983 2986 2994 2996 2995 3003 3011 3016 3019 3021 3025 3025 3026 3029 3032 3035 3038 3042 3046 3050 3052 3054 3055 3055 3057 3058 3058 3059 3059 3058 3058 3058 3058 3057 3057 3057 3057 3055 3055 3055 3056 3056
2977 2979 2979 2977 2983 2988 2992 3000 3006 3011 3014 3017 3018 3025 3024 3027 3031 3034 3037 3041 3045 3049 3051 3053 3053 3054 3055 3057 3057 3058 3058 3057 3058 3057 3057 3057 3057 3058 3058 3057 3056 3056 3057 3057
2977 2977 2977 2975 2978 2982 2986 2993 2999 3002 3010 3013 3018 3019 3019 3025 3029 3031 3033 3038 3043 3047 3050 3051 3051 3052 3054 3056 3056 3057 3057 3057 3057 3057 3058 3058 3058 3059 3059 3058 3057 3058 3059 3059
2975 2976 2975 2978 2981 2983 2985 2988 2994 2999 3005 3010 3015 3013 3016 3024 3027 3030 3033 3037 3042 3046 3048 3049 3050 3051 3053 3054 3056 3056 3056 3056 3057 3058 3058 3059 3060 3060 3060 3060 3060 3060 3060 3059
2976 2975 2976 2977 2979 2983 2984 2983 2988 2994 3000 3007 3007 3009 3014 3018 3023 3028 3033 3036 3040 3044 3047 3048 3049 3050 3052 3053 3055 3056 3056 3056 3057 3058 3059 3060 3061 3062 3062 3061 3061 3062 3062 3061
2975 2975 2975 2976 2979 2980 2980 2980 2985 2991 2996 3000 3005 3008 3012 3016 3020 3024 3029 3034 3039 3042 3045 3047 3047 3048 3050 3052 3053 3054 3055 3055 3057 3059 3060 3061 3062 3063 3064 3065 3064 3064 3064 3063
2972 2974 2975 2975 2976 2976 2976 2977 2980 2986 2993 2992 2996 3003 3007 3013 3015 3018 3024 3030 3036 3040 3043 3046 3047 3047 3049 3051 3052 3054 3055 3055 3056 3059 3061 3062 3064 3064 3065 3066 3067 3067 3066 3066
2969 2973 2975 2975 2974 2970 2974 2975 2976 2980 2987 2988 2992 2995 2999 3004 3011 3014 3023 3027 3032 3037 3041 3044 3045 3046 3047 3049 3051 3053 3055 3056 3056 3059 3061 3063 3065 3066 3067 3067 3069 3069 3069 3069
2968 2970 2971 2974 2974 2972 2971 2972 2975 2980 2984 2981 2985 2989 2993 2997 3008 3011 3016 3021 3030 3035 3038 3041 3044 3045 3046 3048 3050 3052 3054 3055 3056 3058 3060 3062 3065 3066 3068 3069 3070 3071 3071 3072
2964 2967 2969 2972 2973 2974 2970 2972 2974 2973 2973 2976 2980 2985 2989 2994 3002 3007 3012 3016 3022 3030 3034 3038 3041 3043 3045 3046 3049 3051 3053 3054 3056 3058 3060 3062 3064 3067 3068 3070 3071 3072 3073 3074
2965 2964 2965 2968 2970 2970 2970 2971 2970 2969 2972 2974 2978 2982 2987 2992 2999 3003 3009 3013 3018 3025 3031 3035 3038 3041 3044 3045 3047 3050 3052 3054 3055 3057 3059 3061 3063 3066 3068 3070 3072 3073 3075 3076
2961 2962 2964 2966 2967 2967 2969 2969 2969 2968 2969 2971 2974 2979 2983 2989 2994 2998 3005 3010 3014 3020 3025 3030 3034 3038 3041 3043 3046 3049 3050 3053 3055 3057 3059 3061 3063 3065 3067 3070 3071 3073 3075 3078
2961 2962 2963 2964 2964 2965 2965 2966 2967 2967 2968 2970 2971 2974 2978 2984 2990 2994 2999 3005 3011 3015 3020 3026 3030 3035 3038 3041 3044 3046 3048 3050 3053 3055 3057 3060 3062 3064 3066 3069 3072 3073 3075 3077
2961 2961 2963 2962 2962 2962 2962 2963 2965 2965 2966 2967 2969 2971 2974 2978 2984 2989 2995 3001 3006 3011 3016 3021 3026 3031 3035 3039 3042 3044 3046 3048 3050 3053 3055 3058 3060 3063 3065 3067 3070 3072 3074 3076